SILO ALERT LOG
| Silo ID | Alert Type | Alert Message | Silo Type | Points | Depth (mm) | Strength | Temperature (°C) | Humidity (%) | Height (mm) | Volume (㎥) | Weight (t) | Flag | Time |
|---|---|---|---|---|---|---|---|---|---|---|---|---|---|
| WJWJR01 | Humidity | 습도센서 측정값이 80% 초과 | 평 | 70 | 4350 | 1637 | 21.2 | 82.3 | 3290 | 372.09 | 235.235 | 0 | 2026-06-27 04:26:08.000 |
| WJWJR01 | Humidity | 습도센서 측정값이 80% 초과 | 평 | 71 | 4370 | 1671 | 21.5 | 81.8 | 3269 | 369.828 | 233.805 | 0 | 2026-06-27 03:26:08.000 |
| WJWJR01 | Humidity | 습도센서 측정값이 80% 초과 | 평 | 69 | 4360 | 1626 | 21.9 | 81.4 | 3279 | 370.959 | 234.52 | 0 | 2026-06-27 02:26:09.000 |
| WJWJR01 | Humidity | 습도센서 측정값이 80% 초과 | 평 | 73 | 4610 | 1640 | 22.3 | 81 | 3029 | 342.685 | 216.645 | 0 | 2026-06-27 01:26:08.000 |
| WJWJR01 | Humidity | 습도센서 측정값이 80% 초과 | 평 | 68 | 5450 | 1615 | 22.8 | 80.2 | 2189 | 247.683 | 156.585 | 0 | 2026-06-27 00:26:05.000 |
| WJWJR01 | Humidity | 습도센서 측정값이 80% 초과 | 평 | 76 | 4350 | 1952 | 22.7 | 82.8 | 3290 | 372.09 | 235.235 | 0 | 2026-06-26 07:26:16.000 |
| WJWJR01 | Humidity | 습도센서 측정값이 80% 초과 | 평 | 77 | 4660 | 1943 | 22.7 | 82.5 | 2979 | 337.03 | 213.07 | 0 | 2026-06-26 06:26:17.000 |
| WJWJR01 | Humidity | 습도센서 측정값이 80% 초과 | 평 | 76 | 4350 | 1936 | 22.7 | 82.4 | 3290 | 372.09 | 235.235 | 0 | 2026-06-26 05:26:12.000 |
| WJWJR01 | Humidity | 습도센서 측정값이 80% 초과 | 평 | 79 | 4600 | 1935 | 22.9 | 82.1 | 3040 | 343.816 | 217.36 | 0 | 2026-06-26 04:26:16.000 |
| WJWJR01 | Humidity | 습도센서 측정값이 80% 초과 | 평 | 78 | 4380 | 1932 | 23 | 81.9 | 3260 | 368.697 | 233.09 | 0 | 2026-06-26 03:26:11.000 |
| WJWJR01 | Humidity | 습도센서 측정값이 80% 초과 | 평 | 73 | 4600 | 1933 | 23.2 | 81.6 | 3040 | 343.816 | 217.36 | 0 | 2026-06-26 02:26:20.000 |
| WJWJR01 | Humidity | 습도센서 측정값이 80% 초과 | 평 | 72 | 4380 | 1931 | 23.3 | 81.2 | 3260 | 368.697 | 233.09 | 0 | 2026-06-26 01:26:16.000 |
| WJWJR01 | Humidity | 습도센서 측정값이 80% 초과 | 평 | 79 | 4370 | 1915 | 23.7 | 80.6 | 3269 | 369.828 | 233.805 | 0 | 2026-06-26 00:26:15.000 |
| WJWJR01 | Humidity | 습도센서 측정값이 80% 초과 | 평 | 71 | 4070 | 2595 | 24 | 81.2 | 3569 | 403.757 | 255.255 | 0 | 2026-06-25 08:26:30.000 |
| WJWJR01 | Humidity | 습도센서 측정값이 80% 초과 | 평 | 70 | 4140 | 2604 | 23.7 | 81.6 | 3500 | 395.841 | 250.25 | 0 | 2026-06-25 07:26:22.000 |
| WJWJR01 | Humidity | 습도센서 측정값이 80% 초과 | 평 | 71 | 4050 | 2610 | 23.6 | 81.6 | 3590 | 406.019 | 256.685 | 0 | 2026-06-25 06:26:26.000 |
| WJWJR01 | Humidity | 습도센서 측정값이 80% 초과 | 평 | 72 | 4130 | 2617 | 23.7 | 81.1 | 3510 | 396.972 | 250.965 | 0 | 2026-06-25 05:26:31.000 |
| WJWJR01 | Humidity | 습도센서 측정값이 80% 초과 | 평 | 73 | 4030 | 2621 | 23.9 | 81 | 3609 | 408.281 | 258.115 | 0 | 2026-06-25 04:26:26.000 |
| WJWJR01 | Humidity | 습도센서 측정값이 80% 초과 | 평 | 70 | 4120 | 2613 | 24.1 | 80.9 | 3519 | 398.103 | 251.68 | 0 | 2026-06-25 03:26:27.000 |
| WJWJR01 | Humidity | 습도센서 측정값이 80% 초과 | 평 | 72 | 4090 | 2598 | 24.4 | 80.5 | 3550 | 401.496 | 253.825 | 0 | 2026-06-25 02:26:25.000 |
[첫 페이지] [40] [41] [42] [43] 44 [45] [46] [47] [48] [마지막 페이지]